KAC671 OKKK-OMDB

Flight info

Callsign KAC671
Flight time 1h 20m
Altitude 39000
Route SESRU M677 VUTEB
Aircraft A21N/M-SDE3FGHIRWY/LB1

Departure

Time 2026-04-25 12:48
Airport Kuwait International Airport (OKKK)

Arrival

Time 2026-04-25 14:09
Airport Dubai International Airport (OMDB)
Time Latitude Longitude Altitude Speed Heading
2026-04-25 12:01 29.23728 47.97208 154 ft 0 kts 27°
2026-04-25 12:33 29.23720 47.97203 154 ft 2 kts 27°
2026-04-25 12:33 29.23706 47.97196 154 ft 2 kts 27°
2026-04-25 12:34 29.23693 47.97188 154 ft 2 kts 27°
2026-04-25 12:34 29.23684 47.97183 154 ft 1 kts 27°
2026-04-25 12:34 29.23671 47.97176 154 ft 2 kts 16°
2026-04-25 12:34 29.23661 47.97173 154 ft 2 kts 11°
2026-04-25 12:35 29.23641 47.97171 154 ft 2 kts 357°
2026-04-25 12:35 29.23626 47.97173 154 ft 2 kts 348°
2026-04-25 12:35 29.23612 47.97178 153 ft 2 kts 338°
2026-04-25 12:35 29.23600 47.97184 153 ft 1 kts 330°
2026-04-25 12:40 29.23644 47.97145 153 ft 11 kts 317°
2026-04-25 12:40 29.23715 47.97096 153 ft 12 kts 334°
2026-04-25 12:41 29.23793 47.97044 152 ft 13 kts 307°
2026-04-25 12:41 29.23773 47.96950 150 ft 14 kts 230°
2026-04-25 12:41 29.23725 47.96846 148 ft 15 kts 245°
2026-04-25 12:41 29.23675 47.96727 146 ft 17 kts 244°
2026-04-25 12:42 29.23661 47.96691 145 ft 0 kts 244°
2026-04-25 12:43 29.23657 47.96684 145 ft 2 kts 244°
2026-04-25 12:43 29.23647 47.96652 145 ft 5 kts 260°
2026-04-25 12:43 29.23762 47.96553 145 ft 13 kts 335°
2026-04-25 12:44 29.23848 47.96508 145 ft 13 kts 335°
2026-04-25 12:44 29.23940 47.96458 144 ft 15 kts 334°
2026-04-25 12:44 29.24090 47.96323 141 ft 14 kts 251°
2026-04-25 12:45 29.24081 47.96297 141 ft 0 kts 245°
2026-04-25 12:46 29.24079 47.96293 141 ft 2 kts 245°
2026-04-25 12:47 29.24060 47.96247 140 ft 9 kts 245°
2026-04-25 12:47 29.24026 47.96183 141 ft 9 kts 206°
2026-04-25 12:47 29.23962 47.96198 141 ft 14 kts 154°
2026-04-25 12:47 29.23678 47.96349 145 ft 80 kts 154°
2026-04-25 12:48 29.22963 47.96730 150 ft 143 kts 156°
2026-04-25 12:48 29.21964 47.97260 470 ft 167 kts 154°
2026-04-25 12:48 29.20922 47.97813 1139 ft 167 kts 150°
2026-04-25 12:48 29.20097 47.98689 1768 ft 163 kts 120°
2026-04-25 12:49 29.19579 47.99863 2188 ft 174 kts 116°
2026-04-25 12:49 29.19026 48.01185 2545 ft 191 kts 116°
2026-04-25 12:49 29.18421 48.02603 2905 ft 207 kts 117°
2026-04-25 12:49 29.17747 48.04146 3267 ft 225 kts 117°
2026-04-25 12:50 29.17003 48.05825 3566 ft 248 kts 117°
2026-04-25 12:50 29.16207 48.07615 4061 ft 262 kts 118°
2026-04-25 12:50 29.15434 48.09560 4614 ft 275 kts 109°
2026-04-25 12:50 29.15068 48.11738 5352 ft 281 kts 95°
2026-04-25 12:51 29.15030 48.13987 6096 ft 286 kts 90°
2026-04-25 12:51 29.15051 48.16264 6791 ft 292 kts 90°
2026-04-25 12:51 29.15079 48.18589 7513 ft 296 kts 90°
2026-04-25 12:51 29.15098 48.20969 8216 ft 302 kts 90°
2026-04-25 12:52 29.15105 48.23380 8911 ft 306 kts 92°
2026-04-25 12:52 29.14736 48.25757 9550 ft 309 kts 113°
2026-04-25 12:52 29.13770 48.27953 10264 ft 310 kts 121°
2026-04-25 12:52 29.12672 48.30105 10731 ft 324 kts 122°
2026-04-25 12:53 29.11521 48.32407 11061 ft 341 kts 121°
2026-04-25 12:53 29.10365 48.34826 11562 ft 352 kts 119°
2026-04-25 12:53 29.09218 48.37310 12225 ft 355 kts 118°
2026-04-25 12:53 29.08091 48.39800 12916 ft 357 kts 118°
2026-04-25 12:54 29.06951 48.42345 13588 ft 360 kts 117°
2026-04-25 12:54 29.05813 48.44906 14215 ft 365 kts 117°
2026-04-25 12:54 29.04659 48.47503 14805 ft 369 kts 117°
2026-04-25 12:54 29.03505 48.50104 15407 ft 373 kts 117°
2026-04-25 12:55 29.02326 48.52766 15960 ft 378 kts 117°
2026-04-25 12:55 29.01529 48.54562 16348 ft 381 kts 117°
2026-04-25 12:55 28.99932 48.58164 17125 ft 386 kts 117°
2026-04-25 12:55 28.98717 48.60902 17683 ft 390 kts 117°
2026-04-25 12:56 28.97481 48.63689 18246 ft 393 kts 118°
2026-04-25 12:56 28.96254 48.66457 18815 ft 396 kts 119°
2026-04-25 12:56 28.95011 48.69261 19327 ft 399 kts 120°
2026-04-25 12:56 28.93745 48.72106 19872 ft 402 kts 120°
2026-04-25 12:57 28.92493 48.74918 20365 ft 405 kts 121°
2026-04-25 12:57 28.91214 48.77787 20851 ft 408 kts 121°
2026-04-25 12:57 28.89926 48.80673 21338 ft 411 kts 121°
2026-04-25 12:57 28.88619 48.83596 21832 ft 413 kts 122°
2026-04-25 12:58 28.87322 48.86500 22281 ft 416 kts 122°
2026-04-25 12:58 28.85993 48.89468 22729 ft 419 kts 123°
2026-04-25 12:58 28.84666 48.92430 23185 ft 422 kts 123°
2026-04-25 12:58 28.83322 48.95429 23610 ft 425 kts 123°
2026-04-25 12:59 28.81983 48.98410 24048 ft 428 kts 123°
2026-04-25 12:59 28.80616 49.01460 24484 ft 430 kts 124°
2026-04-25 12:59 28.79256 49.04487 24889 ft 433 kts 124°
2026-04-25 12:59 28.77891 49.07525 25301 ft 435 kts 124°
2026-04-25 13:00 28.76500 49.10617 25710 ft 437 kts 124°
2026-04-25 13:00 28.76036 49.11649 25838 ft 438 kts 124°
2026-04-25 13:00 28.73711 49.16810 26465 ft 443 kts 124°
2026-04-25 13:00 28.72304 49.19931 26853 ft 445 kts 124°
2026-04-25 13:01 28.70885 49.23079 27204 ft 448 kts 125°
2026-04-25 13:01 28.69464 49.26227 27564 ft 450 kts 125°
2026-04-25 13:01 28.68035 49.29393 27922 ft 452 kts 125°
2026-04-25 13:01 28.66590 49.32588 28257 ft 455 kts 125°
2026-04-25 13:02 28.65133 49.35812 28652 ft 456 kts 125°
2026-04-25 13:02 28.63683 49.39019 29015 ft 457 kts 125°
2026-04-25 13:02 28.62202 49.42288 29333 ft 459 kts 125°
2026-04-25 13:02 28.60718 49.45490 29633 ft 460 kts 127°
2026-04-25 13:03 28.59092 49.48637 29923 ft 460 kts 129°
2026-04-25 13:03 28.57448 49.51723 30159 ft 463 kts 129°
2026-04-25 13:03 28.55770 49.54859 30436 ft 466 kts 129°
2026-04-25 13:03 28.54076 49.58028 30712 ft 469 kts 128°
2026-04-25 13:04 28.52388 49.61189 30973 ft 471 kts 128°
2026-04-25 13:04 28.50666 49.64418 31245 ft 474 kts 128°
2026-04-25 13:04 28.48949 49.67638 31461 ft 477 kts 129°
2026-04-25 13:04 28.47242 49.70837 31685 ft 479 kts 129°
2026-04-25 13:05 28.45443 49.74046 32006 ft 476 kts 132°
2026-04-25 13:05 28.43495 49.77038 32375 ft 470 kts 136°
2026-04-25 13:05 28.41358 49.79870 32705 ft 464 kts 141°
2026-04-25 13:05 28.39105 49.82447 33036 ft 459 kts 145°
2026-04-25 13:06 28.36682 49.84848 33321 ft 455 kts 149°
2026-04-25 13:06 28.34163 49.87005 33510 ft 453 kts 154°
2026-04-25 13:06 28.31519 49.89032 33728 ft 452 kts 155°
2026-04-25 13:06 28.28907 49.91002 34067 ft 451 kts 155°
2026-04-25 13:07 28.26278 49.92986 34339 ft 452 kts 155°
2026-04-25 13:07 28.23647 49.94968 34491 ft 455 kts 155°
2026-04-25 13:07 28.20986 49.96979 34656 ft 458 kts 155°
2026-04-25 13:07 28.18322 49.98996 34860 ft 459 kts 154°
2026-04-25 13:08 28.15631 50.01035 35078 ft 460 kts 155°
2026-04-25 13:08 28.12979 50.03046 35301 ft 461 kts 154°
2026-04-25 13:08 28.10310 50.05069 35549 ft 461 kts 155°
2026-04-25 13:08 28.07637 50.07092 35738 ft 463 kts 154°
2026-04-25 13:09 28.04935 50.09137 35889 ft 465 kts 154°
2026-04-25 13:09 28.02218 50.11192 36052 ft 467 kts 154°
2026-04-25 13:09 27.99520 50.13231 36252 ft 467 kts 154°
2026-04-25 13:09 27.96797 50.15287 36405 ft 469 kts 154°
2026-04-25 13:10 27.94056 50.17357 36543 ft 471 kts 154°
2026-04-25 13:10 27.91329 50.19412 36735 ft 471 kts 154°
2026-04-25 13:10 27.88561 50.21499 36913 ft 472 kts 154°
2026-04-25 13:10 27.85838 50.23551 37063 ft 474 kts 154°
2026-04-25 13:11 27.83091 50.25619 37170 ft 476 kts 154°
2026-04-25 13:11 27.80303 50.27717 37299 ft 478 kts 154°
2026-04-25 13:11 27.74731 50.31911 37561 ft 481 kts 154°
2026-04-25 13:12 27.71941 50.34006 37692 ft 482 kts 154°
2026-04-25 13:12 27.69114 50.36127 37766 ft 485 kts 154°
2026-04-25 13:12 27.66278 50.38256 37874 ft 487 kts 154°
2026-04-25 13:12 27.64389 50.39673 37945 ft 488 kts 154°
2026-04-25 13:13 27.60605 50.42529 38118 ft 490 kts 153°
2026-04-25 13:13 27.57779 50.44691 38232 ft 492 kts 153°
2026-04-25 13:13 27.54919 50.46891 38334 ft 493 kts 153°
2026-04-25 13:13 27.52077 50.49075 38405 ft 496 kts 153°
2026-04-25 13:14 27.49183 50.51299 38528 ft 497 kts 153°
2026-04-25 13:14 27.46312 50.53501 38662 ft 498 kts 153°
2026-04-25 13:14 27.40549 50.57901 38833 ft 502 kts 153°
2026-04-25 13:15 27.34762 50.62323 38911 ft 499 kts 153°
2026-04-25 13:15 27.29005 50.66715 38904 ft 500 kts 153°
2026-04-25 13:16 27.23176 50.71153 38923 ft 502 kts 154°
2026-04-25 13:16 27.17398 50.75615 38910 ft 505 kts 150°
2026-04-25 13:17 27.11947 50.80716 38912 ft 512 kts 143°
2026-04-25 13:17 27.06912 50.86404 38917 ft 516 kts 140°
2026-04-25 13:18 27.01975 50.92239 38916 ft 519 kts 136°
2026-04-25 13:18 26.97524 50.98733 38905 ft 525 kts 127°
2026-04-25 13:19 26.93677 51.05690 38900 ft 527 kts 125°
2026-04-25 13:19 26.91154 51.10354 38892 ft 525 kts 125°
2026-04-25 13:20 26.86556 51.20071 38684 ft 531 kts 115°
2026-04-25 13:20 26.85225 51.23909 38391 ft 533 kts 111°
2026-04-25 13:20 26.84041 51.27857 38139 ft 532 kts 109°
2026-04-25 13:21 26.82896 51.31799 37880 ft 531 kts 109°
2026-04-25 13:21 26.81763 51.35697 37627 ft 527 kts 110°
2026-04-25 13:21 26.80604 51.39634 37369 ft 525 kts 109°
2026-04-25 13:21 26.79456 51.43480 37114 ft 523 kts 110°
2026-04-25 13:22 26.78309 51.47313 36861 ft 521 kts 110°
2026-04-25 13:22 26.77157 51.51141 36608 ft 518 kts 110°
2026-04-25 13:22 26.76002 51.54974 36356 ft 516 kts 111°
2026-04-25 13:23 26.73721 51.62524 35854 ft 512 kts 110°
2026-04-25 13:23 26.72578 51.66322 35601 ft 510 kts 111°
2026-04-25 13:23 26.71454 51.70079 35343 ft 507 kts 111°
2026-04-25 13:23 26.70354 51.73761 35094 ft 505 kts 111°
2026-04-25 13:24 26.69242 51.77472 34840 ft 503 kts 111°
2026-04-25 13:24 26.68117 51.81226 34587 ft 501 kts 112°
2026-04-25 13:24 26.67015 51.84889 34337 ft 501 kts 112°
2026-04-25 13:24 26.65881 51.88645 34074 ft 499 kts 112°
2026-04-25 13:25 26.64761 51.92310 33734 ft 492 kts 113°
2026-04-25 13:25 26.63628 51.95842 32997 ft 481 kts 114°
2026-04-25 13:25 26.62472 51.99352 32711 ft 481 kts 114°
2026-04-25 13:25 26.61305 52.02887 32442 ft 481 kts 114°
2026-04-25 13:26 26.60148 52.06398 32179 ft 481 kts 114°
2026-04-25 13:26 26.58998 52.09906 31912 ft 478 kts 114°
2026-04-25 13:26 26.57855 52.13403 31645 ft 476 kts 115°
2026-04-25 13:26 26.56707 52.16917 31375 ft 473 kts 114°
2026-04-25 13:27 26.55575 52.20372 31108 ft 472 kts 115°
2026-04-25 13:27 26.54450 52.23807 30899 ft 471 kts 115°
2026-04-25 13:27 26.53327 52.27229 30884 ft 471 kts 115°
2026-04-25 13:28 26.51059 52.34131 30882 ft 470 kts 114°
2026-04-25 13:28 26.48801 52.41005 30889 ft 471 kts 114°
2026-04-25 13:29 26.46546 52.47850 30882 ft 471 kts 114°
2026-04-25 13:29 26.44287 52.54698 30885 ft 471 kts 114°
2026-04-25 13:30 26.40909 52.64916 30885 ft 471 kts 114°
2026-04-25 13:31 26.37513 52.75163 30882 ft 469 kts 115°
2026-04-25 13:31 26.35247 52.81976 30879 ft 470 kts 115°
2026-04-25 13:32 26.32964 52.88804 30875 ft 471 kts 114°
2026-04-25 13:32 26.30676 52.95661 30872 ft 471 kts 114°
2026-04-25 13:33 26.28398 53.02478 30872 ft 472 kts 115°
2026-04-25 13:33 26.26103 53.09323 30871 ft 472 kts 115°
2026-04-25 13:34 26.23809 53.16159 30869 ft 472 kts 115°
2026-04-25 13:34 26.21503 53.23019 30869 ft 472 kts 115°
2026-04-25 13:35 26.19195 53.29863 30867 ft 472 kts 115°
2026-04-25 13:35 26.16698 53.36594 30868 ft 470 kts 118°
2026-04-25 13:36 26.13993 53.43223 30865 ft 470 kts 118°
2026-04-25 13:36 26.11295 53.49836 30867 ft 470 kts 118°
2026-04-25 13:37 26.08609 53.56435 30821 ft 465 kts 118°
2026-04-25 13:37 26.07283 53.59695 30405 ft 461 kts 118°
2026-04-25 13:37 26.05954 53.62952 29753 ft 460 kts 118°
2026-04-25 13:37 26.04620 53.66220 29159 ft 458 kts 118°
2026-04-25 13:38 26.03326 53.69391 28643 ft 454 kts 118°
2026-04-25 13:38 26.02025 53.72585 28151 ft 449 kts 118°
2026-04-25 13:38 26.00732 53.75751 27646 ft 445 kts 118°
2026-04-25 13:38 25.99494 53.78864 27137 ft 442 kts 117°
2026-04-25 13:39 25.98269 53.81998 26649 ft 438 kts 117°
2026-04-25 13:39 25.97076 53.85063 26168 ft 434 kts 117°
2026-04-25 13:39 25.95867 53.88155 25685 ft 430 kts 117°
2026-04-25 13:39 25.94687 53.91161 25195 ft 426 kts 116°
2026-04-25 13:40 25.93517 53.94138 24726 ft 423 kts 117°
2026-04-25 13:40 25.92346 53.97113 24233 ft 419 kts 117°
2026-04-25 13:40 25.91123 54.00022 23755 ft 415 kts 119°
2026-04-25 13:40 25.89862 54.02882 23294 ft 411 kts 119°
2026-04-25 13:41 25.88605 54.05716 22817 ft 408 kts 119°
2026-04-25 13:41 25.87345 54.08553 22355 ft 404 kts 119°
2026-04-25 13:41 25.86112 54.11332 21919 ft 401 kts 119°
2026-04-25 13:41 25.84896 54.14073 21482 ft 397 kts 119°
2026-04-25 13:42 25.83671 54.16834 21035 ft 394 kts 119°
2026-04-25 13:42 25.82487 54.19556 20616 ft 391 kts 117°
2026-04-25 13:42 25.81446 54.22333 20197 ft 389 kts 113°
2026-04-25 13:42 25.80551 54.25127 19763 ft 387 kts 111°
2026-04-25 13:43 25.79681 54.27949 19354 ft 384 kts 111°
2026-04-25 13:43 25.78818 54.30752 18944 ft 380 kts 111°
2026-04-25 13:43 25.77965 54.33518 18536 ft 377 kts 111°
2026-04-25 13:43 25.77126 54.36231 18125 ft 374 kts 111°
2026-04-25 13:44 25.76283 54.38948 17714 ft 371 kts 112°
2026-04-25 13:44 25.75442 54.41655 17300 ft 369 kts 112°
2026-04-25 13:44 25.74602 54.44352 16889 ft 366 kts 111°
2026-04-25 13:44 25.73772 54.47011 16479 ft 363 kts 111°
2026-04-25 13:45 25.72948 54.49652 16072 ft 361 kts 111°
2026-04-25 13:45 25.72129 54.52275 15677 ft 358 kts 111°
2026-04-25 13:45 25.71317 54.54876 15277 ft 355 kts 111°
2026-04-25 13:45 25.70507 54.57467 14869 ft 353 kts 111°
2026-04-25 13:46 25.69710 54.60015 14509 ft 349 kts 111°
2026-04-25 13:46 25.68901 54.62553 14269 ft 348 kts 111°
2026-04-25 13:46 25.68089 54.65076 14030 ft 347 kts 112°
2026-04-25 13:46 25.67283 54.67579 13788 ft 345 kts 111°
2026-04-25 13:47 25.66487 54.70060 13551 ft 344 kts 111°
2026-04-25 13:47 25.65688 54.72543 13312 ft 342 kts 111°
2026-04-25 13:47 25.64887 54.75037 13079 ft 340 kts 111°
2026-04-25 13:47 25.64094 54.77502 13011 ft 340 kts 111°
2026-04-25 13:48 25.63300 54.79974 13008 ft 340 kts 111°
2026-04-25 13:48 25.62503 54.82444 13007 ft 340 kts 111°
2026-04-25 13:48 25.61717 54.84883 13001 ft 340 kts 111°
2026-04-25 13:48 25.60885 54.87302 12911 ft 332 kts 115°
2026-04-25 13:49 25.59992 54.89629 12740 ft 322 kts 115°
2026-04-25 13:49 25.59116 54.91861 12579 ft 313 kts 116°
2026-04-25 13:49 25.58252 54.94061 12418 ft 304 kts 115°
2026-04-25 13:49 25.57424 54.96176 12252 ft 296 kts 115°
2026-04-25 13:50 25.56617 54.98240 12101 ft 288 kts 115°
2026-04-25 13:50 25.55835 55.00245 11846 ft 284 kts 115°
2026-04-25 13:50 25.55046 55.02259 11527 ft 283 kts 116°
2026-04-25 13:50 25.54190 55.04190 11184 ft 282 kts 121°
2026-04-25 13:51 25.53219 55.06090 10983 ft 278 kts 122°
2026-04-25 13:51 25.52270 55.07912 10711 ft 276 kts 122°
2026-04-25 13:51 25.51305 55.09762 10288 ft 279 kts 121°
2026-04-25 13:51 25.50330 55.11636 9934 ft 279 kts 121°
2026-04-25 13:52 25.49357 55.13507 9595 ft 278 kts 121°
2026-04-25 13:52 25.48403 55.15344 9215 ft 278 kts 121°
2026-04-25 13:52 25.47440 55.17199 9031 ft 276 kts 121°
2026-04-25 13:52 25.46456 55.19035 8992 ft 277 kts 124°
2026-04-25 13:53 25.45325 55.20749 8992 ft 276 kts 131°
2026-04-25 13:53 25.44055 55.22358 8990 ft 276 kts 133°
2026-04-25 13:53 25.42772 55.23926 8944 ft 275 kts 134°
2026-04-25 13:53 25.41484 55.25494 8976 ft 275 kts 134°
2026-04-25 13:54 25.40189 55.27076 8991 ft 275 kts 134°
2026-04-25 13:54 25.38903 55.28650 8997 ft 275 kts 134°
2026-04-25 13:54 25.37636 55.30202 8997 ft 271 kts 133°
2026-04-25 13:54 25.36404 55.31708 8991 ft 257 kts 136°
2026-04-25 13:55 25.35051 55.32976 8990 ft 246 kts 148°
2026-04-25 13:55 25.33589 55.33912 8998 ft 242 kts 154°
2026-04-25 13:55 25.32097 55.34776 9002 ft 242 kts 154°
2026-04-25 13:55 25.30599 55.35632 8917 ft 238 kts 154°
2026-04-25 13:56 25.29135 55.36476 8627 ft 239 kts 154°
2026-04-25 13:56 25.27651 55.37338 8299 ft 240 kts 154°
2026-04-25 13:56 25.26183 55.38194 8000 ft 240 kts 154°
2026-04-25 13:56 25.24701 55.39059 7708 ft 239 kts 154°
2026-04-25 13:57 25.23218 55.39928 7413 ft 239 kts 154°
2026-04-25 13:57 25.22744 55.40206 7315 ft 239 kts 154°
2026-04-25 13:57 25.20292 55.41640 7018 ft 238 kts 153°
2026-04-25 13:57 25.18816 55.42503 7017 ft 240 kts 154°
2026-04-25 13:58 25.17339 55.43367 7017 ft 239 kts 153°
2026-04-25 13:58 25.15849 55.44238 7017 ft 239 kts 153°
2026-04-25 13:58 25.14374 55.45100 7016 ft 239 kts 153°
2026-04-25 13:58 25.12900 55.45962 7015 ft 239 kts 153°
2026-04-25 13:59 25.11453 55.46915 7008 ft 241 kts 141°
2026-04-25 13:59 25.10351 55.48292 6962 ft 238 kts 124°
2026-04-25 13:59 25.09473 55.49855 6662 ft 239 kts 120°
2026-04-25 13:59 25.08635 55.51434 6350 ft 241 kts 120°
2026-04-25 14:00 25.08349 55.51969 6252 ft 241 kts 120°
2026-04-25 14:00 25.06910 55.54614 5943 ft 234 kts 121°
2026-04-25 14:00 25.06083 55.56102 5887 ft 220 kts 121°
2026-04-25 14:00 25.05397 55.57595 5593 ft 218 kts 103°
2026-04-25 14:01 25.05473 55.59181 5341 ft 205 kts 65°
2026-04-25 14:01 25.06253 55.60438 5168 ft 191 kts 45°
2026-04-25 14:01 25.07148 55.61447 4987 ft 179 kts 32°
2026-04-25 14:01 25.08269 55.61809 4775 ft 161 kts 349°
2026-04-25 14:02 25.09297 55.61450 4604 ft 147 kts 334°
2026-04-25 14:02 25.10213 55.60987 4310 ft 143 kts 332°
2026-04-25 14:02 25.11088 55.60462 3941 ft 142 kts 323°
2026-04-25 14:02 25.11356 55.60250 3818 ft 142 kts 321°
2026-04-25 14:03 25.12524 55.58994 3199 ft 141 kts 309°
2026-04-25 14:03 25.13121 55.58133 2835 ft 141 kts 306°
2026-04-25 14:03 25.13678 55.57258 2478 ft 140 kts 304°
2026-04-25 14:03 25.14219 55.56366 2139 ft 138 kts 303°
2026-04-25 14:04 25.14740 55.55474 2028 ft 138 kts 303°
2026-04-25 14:04 25.15261 55.54564 2033 ft 139 kts 302°
2026-04-25 14:04 25.15770 55.53659 2028 ft 139 kts 301°
2026-04-25 14:04 25.16280 55.52740 2030 ft 139 kts 301°
2026-04-25 14:05 25.16788 55.51817 2022 ft 139 kts 301°
2026-04-25 14:05 25.17288 55.50907 2026 ft 139 kts 301°
2026-04-25 14:05 25.17791 55.49990 2020 ft 139 kts 301°
2026-04-25 14:05 25.18296 55.49071 1930 ft 139 kts 301°
2026-04-25 14:06 25.18798 55.48161 1757 ft 138 kts 301°
2026-04-25 14:06 25.19292 55.47262 1586 ft 138 kts 301°
2026-04-25 14:06 25.19790 55.46359 1417 ft 137 kts 301°
2026-04-25 14:06 25.20289 55.45457 1246 ft 137 kts 301°
2026-04-25 14:07 25.20789 55.44552 1071 ft 137 kts 301°
2026-04-25 14:07 25.21278 55.43657 895 ft 136 kts 301°
2026-04-25 14:07 25.21772 55.42760 719 ft 135 kts 301°
2026-04-25 14:07 25.22265 55.41871 554 ft 135 kts 301°
2026-04-25 14:08 25.22760 55.40993 380 ft 135 kts 301°
2026-04-25 14:08 25.23251 55.40106 199 ft 133 kts 301°
2026-04-25 14:08 25.23733 55.39234 70 ft 131 kts 301°
2026-04-25 14:08 25.24127 55.38525 56 ft 68 kts 301°
2026-04-25 14:09 25.24262 55.38285 55 ft 32 kts 301°
2026-04-25 14:09 25.24418 55.38001 52 ft 47 kts 301°
2026-04-25 14:09 25.24573 55.37714 50 ft 37 kts 296°
2026-04-25 14:09 25.24618 55.37634 49 ft 36 kts 304°
2026-04-25 14:10 25.24779 55.37253 47 ft 30 kts 276°
2026-04-25 14:10 25.24786 55.37089 46 ft 2 kts 272°
2026-04-25 14:10 25.24787 55.37078 46 ft 2 kts 272°
2026-04-25 14:10 25.24788 55.37058 46 ft 3 kts 272°
2026-04-25 14:11 25.24789 55.37014 45 ft 7 kts 272°
2026-04-25 14:11 25.24802 55.36951 45 ft 8 kts 290°
2026-04-25 14:11 25.24826 55.36898 46 ft 5 kts 298°
2026-04-25 14:11 25.24827 55.36897 46 ft 0 kts 298°
2026-04-25 14:12 25.24827 55.36896 46 ft 0 kts 298°
2026-04-25 14:13 25.24831 55.36888 46 ft 3 kts 298°
2026-04-25 14:13 25.24854 55.36821 46 ft 16 kts 284°
2026-04-25 14:13 25.24879 55.36706 46 ft 14 kts 290°
2026-04-25 14:13 25.24924 55.36604 45 ft 15 kts 297°
2026-04-25 14:14 25.24983 55.36498 41 ft 17 kts 302°
2026-04-25 14:14 25.25053 55.36371 35 ft 20 kts 301°
2026-04-25 14:14 25.25126 55.36239 36 ft 18 kts 301°
2026-04-25 14:14 25.25194 55.36116 38 ft 22 kts 301°
2026-04-25 14:15 25.25286 55.35952 35 ft 24 kts 301°
2026-04-25 14:15 25.25314 55.35901 36 ft 23 kts 301°
2026-04-25 14:15 25.25451 55.35655 33 ft 22 kts 301°
2026-04-25 14:15 25.25537 55.35498 28 ft 24 kts 301°
2026-04-25 14:16 25.25621 55.35346 31 ft 21 kts 301°
2026-04-25 14:16 25.25674 55.35251 32 ft 0 kts 301°
2026-04-25 14:16 25.25675 55.35251 32 ft 0 kts 301°
2026-04-25 14:16 25.25691 55.35222 31 ft 8 kts 301°
2026-04-25 14:17 25.25735 55.35142 30 ft 15 kts 301°
2026-04-25 14:17 25.25797 55.35023 30 ft 19 kts 300°
2026-04-25 14:17 25.25866 55.34898 30 ft 18 kts 301°
2026-04-25 14:17 25.25933 55.34777 29 ft 18 kts 301°
2026-04-25 14:18 25.26001 55.34654 27 ft 15 kts 301°
2026-04-25 14:18 25.26042 55.34562 27 ft 12 kts 266°
2026-04-25 14:18 25.25990 55.34507 27 ft 6 kts 210°
2026-04-25 14:18 25.25947 55.34478 26 ft 7 kts 211°
2026-04-25 14:19 25.25915 55.34458 26 ft 3 kts 211°
2026-04-25 14:19 25.25912 55.34455 26 ft 0 kts 211°